Погода в Першотравенске

Украина / Житомирская область     50°12′02″N   27°37′59″E
темп.,
°C
ветер,
м/с
пор.,
м/с
влажн.,
%
обл.,
%
осадки,
мм/ч
давл.,
гПа
погр.,
м
6 мая, чт
чт600:00+11ю7159197 1.2 1003528
03:00+10ююз5119652 1.6 1003408
06:00+7з71292100 0.5 1005632
09:00+7зсз51190100 0.7 1009936
12:00+12з71051100 0.1 10101758
15:00+13зсз794065 0.1 10122077
18:00+13зсз48437 0.0 10122284
21:00+7зюз346395 0.0 101352
7 мая, пт
пт700:00+7ююз367184 0.0 1014104
03:00+5ю39835 0.0 1013160
06:00+5ю4108471 0.0 1012203
09:00+11ююв51167100 0.0 1011538
12:00+15ю81162100 0.1 10081617
15:00+13юз51077100 0.9 1007777
18:00+12ююз4108598 0.0 1006500
21:00+11юз3893100 1.5 1007263
8 мая, сб
сб800:00+10зсз51288100 0.5 1007568
03:00+8зсз61284100 0.6 1009761
06:00+4зсз71383100 0.0 1012909
09:00+6з71178100 0.1 10151231
12:00+6зсз7117599 0.1 10171226
15:00+8зсз71162100 0.2 10171501
18:00+9сз5105936 0.1 10171690
21:00+5зсз39765 0.1 1019234
9 мая, вс
вс900:00+3зсз36845 0.0 102196
03:00+2з37834 0.0 1022134
06:00+1з37941 0.0 1023134
09:00+8зсз476861 0.0 1024575
12:00+12зсз34495 0.0 10251464
15:00+14зсз34425 0.0 10251939
18:00+14з2343100 0.0 10251753
21:00+8юв22643 0.0 102612
10 мая, пн
пн1000:00+6ююв33635 0.0 102741
03:00+5ююв35695 0.0 102771
06:00+5ююв357316 0.0 102777
09:00+12юв46565 0.0 1027391
12:00+16ююв56455 0.0 10261346
15:00+18ююв45420 0.0 10251441
18:00+17юв45510 0.0 10241299
21:00+11вюв410770 0.0 1025198